| time (UTC) | temp C | wind direction | speed KPH | gust KPH | rain 1hr cm | rain 24hr cm | rain mn cm | humidity % | barometer mb |
| 20260505040705 | 12 | 0 | 1.6 | 3.2 | 0.00 | 0.64 | 0.00 | 75 | 997.7 |
| 20260505040205 | 12 | 0 | 1.6 | 3.2 | 0.00 | 0.64 | 0.00 | 74 | 997.7 |
| 20260505033705 | 12 | 182 | 0.0 | 1.6 | 0.00 | 0.64 | 0.64 | 74 | 997.9 |
| 20260505023706 | 13 | 181 | 0.0 | 3.2 | 0.00 | 0.64 | 0.64 | 73 | 998.1 |
| 20260505020705 | 13 | 0 | 1.6 | 3.2 | 0.00 | 0.64 | 0.64 | 72 | 998.2 |
| 20260505020205 | 13 | 123 | 3.2 | 9.7 | 0.00 | 0.64 | 0.64 | 72 | 998.4 |
| 20260505013705 | 12 | 164 | 0.0 | 1.6 | 0.00 | 0.64 | 0.64 | 74 | 998.4 |
| 20260505013205 | 12 | 164 | 1.6 | 4.8 | 0.00 | 0.64 | 0.64 | 74 | 998.4 |
| 20260505010705 | 12 | 164 | 1.6 | 3.2 | 0.00 | 0.64 | 0.64 | 75 | 998.5 |
| 20260505010205 | 12 | 164 | 0.0 | 3.2 | 0.00 | 0.64 | 0.64 | 75 | 998.3 |
| 20260505003704 | 12 | 164 | 1.6 | 3.2 | 0.00 | 0.64 | 0.64 | 75 | 998.0 |
| 20260505003205 | 13 | 164 | 1.6 | 4.8 | 0.00 | 0.64 | 0.64 | 75 | 998.0 |
| 20260505000205 | 14 | 163 | 1.6 | 3.2 | 0.00 | 0.64 | 0.64 | 73 | 997.9 |
| 20260504233704 | 15 | 162 | 0.0 | 3.2 | 0.00 | 0.64 | 0.64 | 69 | 997.9 |
| 20260504233205 | 15 | 162 | 0.0 | 3.2 | 0.00 | 0.64 | 0.64 | 68 | 998.0 |
| 20260504230204 | 16 | 183 | 0.0 | 4.8 | 0.00 | 0.64 | 0.64 | 65 | 998.2 |
| 20260504223705 | 16 | 143 | 0.0 | 3.2 | 0.00 | 0.64 | 0.64 | 62 | 998.1 |
| 20260504223204 | 16 | 153 | 0.0 | 8.0 | 0.00 | 0.64 | 0.64 | 62 | 998.1 |
| 20260504220705 | 17 | 84 | 1.6 | 8.0 | 0.00 | 0.64 | 0.64 | 61 | 998.4 |
| 20260504220205 | 17 | 175 | 1.6 | 12.9 | 0.00 | 0.64 | 0.64 | 61 | 998.4 |
| 20260504213205 | 17 | 102 | 3.2 | 8.0 | 0.00 | 0.64 | 0.64 | 59 | 998.5 |
| 20260504210705 | 17 | 45 | 4.8 | 11.3 | 0.00 | 0.64 | 0.64 | 62 | 998.6 |
| 20260504210206 | 17 | 203 | 1.6 | 8.0 | 0.00 | 0.64 | 0.64 | 62 | 998.7 |
| 20260504203705 | 16 | 297 | 3.2 | 4.8 | 0.00 | 0.64 | 0.64 | 66 | 999.0 |
| 20260504203204 | 15 | 74 | 1.6 | 8.0 | 0.00 | 0.64 | 0.64 | 69 | 999.1 |
| 20260504200705 | 15 | 131 | 3.2 | 4.8 | 0.00 | 0.64 | 0.64 | 69 | 999.4 |
| 20260504200205 | 15 | 298 | 1.6 | 8.0 | 0.00 | 0.64 | 0.64 | 70 | 999.4 |
| 20260504193704 | 14 | 271 | 3.2 | 8.0 | 0.00 | 0.64 | 0.64 | 71 | 999.6 |
| 20260504193206 | 14 | 221 | 3.2 | 9.7 | 0.00 | 0.64 | 0.64 | 73 | 999.6 |
| 20260504190705 | 13 | 88 | 3.2 | 8.0 | 0.00 | 0.64 | 0.64 | 73 | 999.9 |
| 20260504190205 | 13 | 272 | 1.6 | 4.8 | 0.00 | 0.64 | 0.64 | 75 | 999.9 |
| 20260504183704 | 12 | 212 | 0.0 | 4.8 | 0.00 | 0.64 | 0.64 | 76 | 1000.1 |
| 20260504183204 | 12 | 282 | 1.6 | 8.0 | 0.00 | 0.64 | 0.64 | 76 | 1000.1 |
| 20260504180704 | 12 | 173 | 1.6 | 11.3 | 0.00 | 0.64 | 0.64 | 75 | 1000.2 |
| 20260504180206 | 12 | 314 | 1.6 | 11.3 | 0.00 | 0.64 | 0.64 | 75 | 1000.3 |
| 20260504173705 | 12 | 324 | 3.2 | 4.8 | 0.00 | 0.64 | 0.64 | 74 | 1000.3 |
| 20260504173204 | 12 | 319 | 3.2 | 12.9 | 0.00 | 0.64 | 0.64 | 75 | 1000.3 |
| 20260504170707 | 11 | 138 | 3.2 | 12.9 | 0.00 | 0.64 | 0.64 | 80 | 1000.7 |
| 20260504170206 | 10 | 239 | 4.8 | 16.1 | 0.00 | 0.64 | 0.64 | 81 | 1000.7 |
| 20260504160206 | 9 | 0 | 1.6 | 11.3 | 0.00 | 0.64 | 0.64 | 84 | 1001.1 |
| 20260504150706 | 8 | 0 | 3.2 | 9.7 | 0.00 | 0.64 | 0.64 | 89 | 1000.9 |
| 20260504150206 | 8 | 0 | 6.4 | 9.7 | 0.00 | 0.64 | 0.64 | 90 | 1000.9 |
| 20260504140705 | 6 | 196 | 1.6 | 1.6 | 0.03 | 0.64 | 0.64 | 98 | 1000.8 |
| 20260504140206 | 6 | 196 | 0.0 | 1.6 | 0.03 | 0.64 | 0.64 | 98 | 1000.8 |
| 20260504130705 | 5 | 200 | 0.0 | 3.2 | 0.08 | 0.61 | 0.61 | 97 | 1000.9 |
| 20260504130205 | 5 | 226 | 0.0 | 1.6 | 0.08 | 0.61 | 0.61 | 97 | 1000.8 |
| 20260504120205 | 4 | 227 | 0.0 | 3.2 | 0.08 | 0.53 | 0.53 | 97 | 1000.7 |
| 20260504110706 | 3 | 227 | 0.0 | 0.0 | 0.30 | 0.48 | 0.48 | 97 | 1000.3 |
| 20260504110205 | 3 | 227 | 0.0 | 0.0 | 0.30 | 0.46 | 0.46 | 96 | 1000.3 |
| 20260504100205 | 3 | 227 | 0.0 | 1.6 | 0.15 | 0.15 | 0.15 | 95 | 1000.0 |
| 20260504080705 | 1 | 227 | 1.6 | 1.6 | 0.00 | 0.00 | 0.00 | 88 | 1000.6 |
| 20260504080205 | 1 | 227 | 0.0 | 3.2 | 0.00 | 0.00 | 0.00 | 87 | 1000.6 |
| 20260504070206 | 2 | 227 | 0.0 | 3.2 | 0.00 | 0.00 | 0.00 | 83 | 1001.0 |
| 20260504050705 | 2 | 227 | 0.0 | 1.6 | 0.00 | 0.00 | 0.00 | 82 | 1001.4 |